Time,TemperatureF,DewpointF,PressureIn,WindDirection,WindDirectionDegrees,WindSpeedMPH,WindSpeedGustMPH,Humidity,HourlyPrecipIn,Conditions,Clouds,dailyrainin,SoftwareType,DateUTC
2013-01-15 00:00:00,20.3,16.2,30.38,NE,44,1.0,1.0,84,0.00,,,0.00,Wunderground v.1.15,2013-01-15 06:00:00,
2013-01-15 00:05:00,20.4,16.3,30.38,NE,47,1.0,3.0,84,0.00,,,0.00,Wunderground v.1.15,2013-01-15 06:05:00,
2013-01-15 00:11:00,20.4,16.3,30.38,ENE,68,2.0,2.0,84,0.00,,,0.00,Wunderground v.1.15,2013-01-15 06:11:00,
2013-01-15 00:16:00,20.3,16.2,30.37,NE,47,1.0,2.0,84,0.00,,,0.00,Wunderground v.1.15,2013-01-15 06:16:00,
2013-01-15 00:22:00,20.3,16.2,30.37,NE,49,1.0,1.0,84,0.00,,,0.00,Wunderground v.1.15,2013-01-15 06:22:00,
2013-01-15 00:27:00,20.2,16.1,30.37,NE,48,1.0,2.0,84,0.00,,,0.00,Wunderground v.1.15,2013-01-15 06:27:00,
2013-01-15 00:32:00,20.1,16.3,30.37,NE,53,1.0,2.0,85,0.00,,,0.00,Wunderground v.1.15,2013-01-15 06:32:00,
2013-01-15 00:38:00,20.1,16.3,30.37,ENE,65,1.0,4.0,85,0.00,,,0.00,Wunderground v.1.15,2013-01-15 06:38:00,
2013-01-15 00:43:00,20.0,16.2,30.36,ENE,74,1.0,3.0,85,0.00,,,0.00,Wunderground v.1.15,2013-01-15 06:43:00,
2013-01-15 00:48:00,19.9,16.1,30.37,NE,49,2.0,3.0,85,0.00,,,0.00,Wunderground v.1.15,2013-01-15 06:48:00,
2013-01-15 00:53:00,19.7,15.9,30.37,NE,49,1.0,1.0,85,0.00,,,0.00,Wunderground v.1.15,2013-01-15 06:53:00,
2013-01-15 00:58:00,19.5,16.0,30.37,ENE,63,0.0,2.0,86,0.00,,,0.00,Wunderground v.1.15,2013-01-15 06:58:00,
2013-01-15 01:04:00,19.5,16.0,30.37,ENE,65,1.0,1.0,86,0.00,,,0.00,Wunderground v.1.15,2013-01-15 07:04:00,
2013-01-15 01:09:00,19.5,16.0,30.37,NE,49,1.0,1.0,86,0.00,,,0.00,Wunderground v.1.15,2013-01-15 07:09:00,
2013-01-15 01:15:00,19.5,16.0,30.37,ENE,78,4.0,4.0,86,0.00,,,0.00,Wunderground v.1.15,2013-01-15 07:15:00,
2013-01-15 01:20:00,19.6,16.1,30.37,East,86,2.0,2.0,86,0.00,,,0.00,Wunderground v.1.15,2013-01-15 07:20:00,
2013-01-15 01:26:00,19.6,16.1,30.37,ENE,68,2.0,4.0,86,0.00,,,0.00,Wunderground v.1.15,2013-01-15 07:26:00,
2013-01-15 01:32:00,19.5,16.0,30.36,NE,43,0.0,4.0,86,0.00,,,0.00,Wunderground v.1.15,2013-01-15 07:32:00,
2013-01-15 01:37:00,19.5,16.0,30.36,ENE,65,1.0,5.0,86,0.00,,,0.00,Wunderground v.1.15,2013-01-15 07:37:00,
2013-01-15 01:43:00,19.4,18.0,30.36,ENE,66,1.0,2.0,94,0.00,,,0.00,Wunderground v.1.15,2013-01-15 07:43:00,
2013-01-15 01:48:00,19.4,15.9,30.36,NE,54,1.0,3.0,86,0.00,,,0.00,Wunderground v.1.15,2013-01-15 07:48:00,
2013-01-15 01:54:00,19.3,15.8,30.36,NE,41,2.0,5.0,86,0.00,,,0.00,Wunderground v.1.15,2013-01-15 07:54:00,
2013-01-15 01:59:00,19.4,15.9,30.36,East,80,3.0,7.0,86,0.00,,,0.00,Wunderground v.1.15,2013-01-15 07:59:00,
2013-01-15 02:04:00,19.3,15.8,30.36,ENE,61,2.0,4.0,86,0.00,,,0.00,Wunderground v.1.15,2013-01-15 08:04:00,
2013-01-15 02:10:00,19.2,15.7,30.36,ENE,70,2.0,2.0,86,0.00,,,0.00,Wunderground v.1.15,2013-01-15 08:10:00,
2013-01-15 02:15:00,19.1,15.6,30.36,NE,53,2.0,4.0,86,0.00,,,0.00,Wunderground v.1.15,2013-01-15 08:15:00,
2013-01-15 02:21:00,19.1,15.6,30.36,NE,56,3.0,3.0,86,0.00,,,0.00,Wunderground v.1.15,2013-01-15 08:21:00,
2013-01-15 02:26:00,19.0,15.2,30.37,NNE,13,3.0,6.0,85,0.00,,,0.00,Wunderground v.1.15,2013-01-15 08:26:00,
2013-01-15 02:31:00,18.9,15.4,30.37,ENE,57,3.0,4.0,86,0.00,,,0.00,Wunderground v.1.15,2013-01-15 08:31:00,
2013-01-15 02:37:00,18.9,15.1,30.36,NNE,30,3.0,7.0,85,0.00,,,0.00,Wunderground v.1.15,2013-01-15 08:37:00,
2013-01-15 02:42:00,18.8,15.0,30.36,ENE,65,4.0,4.0,85,0.00,,,0.00,Wunderground v.1.15,2013-01-15 08:42:00,
2013-01-15 02:47:00,18.9,15.1,30.36,ENE,67,4.0,5.0,85,0.00,,,0.00,Wunderground v.1.15,2013-01-15 08:47:00,
2013-01-15 02:53:00,18.8,15.0,30.35,NE,42,3.0,5.0,85,0.00,,,0.00,Wunderground v.1.15,2013-01-15 08:53:00,
2013-01-15 02:58:00,18.8,15.0,30.35,NE,42,4.0,6.0,85,0.00,,,0.00,Wunderground v.1.15,2013-01-15 08:58:00,
2013-01-15 03:04:00,18.7,14.9,30.34,NNE,18,4.0,9.0,85,0.00,,,0.00,Wunderground v.1.15,2013-01-15 09:04:00,
2013-01-15 03:10:00,18.6,14.8,30.34,ENE,61,5.0,5.0,85,0.00,,,0.00,Wunderground v.1.15,2013-01-15 09:10:00,
2013-01-15 03:16:00,18.5,14.7,30.34,NNE,18,4.0,6.0,85,0.00,,,0.00,Wunderground v.1.15,2013-01-15 09:16:00,
2013-01-15 03:21:00,18.4,14.6,30.34,ENE,67,2.0,2.0,85,0.00,,,0.00,Wunderground v.1.15,2013-01-15 09:21:00,
2013-01-15 03:26:00,18.3,14.5,30.34,ENE,63,1.0,3.0,85,0.00,,,0.00,Wunderground v.1.15,2013-01-15 09:26:00,
2013-01-15 03:32:00,18.3,14.8,30.34,ENE,69,2.0,3.0,86,0.00,,,0.00,Wunderground v.1.15,2013-01-15 09:32:00,
2013-01-15 03:37:00,18.3,14.8,30.34,ENE,57,2.0,3.0,86,0.00,,,0.00,Wunderground v.1.15,2013-01-15 09:37:00,
2013-01-15 03:43:00,18.2,14.7,30.34,ENE,71,2.0,3.0,86,0.00,,,0.00,Wunderground v.1.15,2013-01-15 09:43:00,
2013-01-15 03:48:00,18.2,14.7,30.34,East,82,2.0,5.0,86,0.00,,,0.00,Wunderground v.1.15,2013-01-15 09:48:00,
2013-01-15 03:53:00,18.2,14.7,30.34,ENE,63,3.0,4.0,86,0.00,,,0.00,Wunderground v.1.15,2013-01-15 09:53:00,
2013-01-15 03:59:00,18.2,14.7,30.34,NE,43,3.0,9.0,86,0.00,,,0.00,Wunderground v.1.15,2013-01-15 09:59:00,
2013-01-15 04:05:00,18.2,14.7,30.33,ENE,73,3.0,7.0,86,0.00,,,0.00,Wunderground v.1.15,2013-01-15 10:05:00,
2013-01-15 04:10:00,18.1,14.6,30.33,NE,49,3.0,4.0,86,0.00,,,0.00,Wunderground v.1.15,2013-01-15 10:10:00,
2013-01-15 04:16:00,18.0,14.5,30.33,ENE,64,3.0,4.0,86,0.00,,,0.00,Wunderground v.1.15,2013-01-15 10:16:00,
2013-01-15 04:21:00,18.0,14.5,30.33,ENE,73,3.0,4.0,86,0.00,,,0.00,Wunderground v.1.15,2013-01-15 10:21:00,
2013-01-15 04:27:00,18.0,14.5,30.33,ENE,57,3.0,4.0,86,0.00,,,0.00,Wunderground v.1.15,2013-01-15 10:27:00,
2013-01-15 04:32:00,18.0,14.5,30.33,NE,53,2.0,5.0,86,0.00,,,0.00,Wunderground v.1.15,2013-01-15 10:32:00,
2013-01-15 04:38:00,18.0,14.5,30.33,ENE,65,3.0,7.0,86,0.00,,,0.00,Wunderground v.1.15,2013-01-15 10:38:00,
2013-01-15 04:43:00,18.0,14.5,30.33,ENE,59,3.0,5.0,86,0.00,,,0.00,Wunderground v.1.15,2013-01-15 10:43:00,
2013-01-15 04:48:00,18.0,14.5,30.33,ENE,59,2.0,5.0,86,0.00,,,0.00,Wunderground v.1.15,2013-01-15 10:48:00,
2013-01-15 04:54:00,18.0,14.5,30.33,ENE,60,2.0,4.0,86,0.00,,,0.00,Wunderground v.1.15,2013-01-15 10:54:00,
2013-01-15 05:00:00,17.9,14.4,30.33,ENE,67,2.0,2.0,86,0.00,,,0.00,Wunderground v.1.15,2013-01-15 11:00:00,
2013-01-15 05:06:00,17.8,14.3,30.33,East,84,2.0,5.0,86,0.00,,,0.00,Wunderground v.1.15,2013-01-15 11:06:00,
2013-01-15 05:11:00,17.7,14.2,30.33,East,83,2.0,2.0,86,0.00,,,0.00,Wunderground v.1.15,2013-01-15 11:11:00,
2013-01-15 05:17:00,17.6,14.1,30.33,East,83,1.0,2.0,86,0.00,,,0.00,Wunderground v.1.15,2013-01-15 11:17:00,
2013-01-15 05:22:00,17.6,14.1,30.33,ENE,62,1.0,2.0,86,0.00,,,0.00,Wunderground v.1.15,2013-01-15 11:22:00,
2013-01-15 05:27:00,17.6,14.1,30.33,ENE,65,1.0,2.0,86,0.00,,,0.00,Wunderground v.1.15,2013-01-15 11:27:00,
2013-01-15 05:32:00,17.5,14.0,30.33,ENE,65,1.0,4.0,86,0.00,,,0.00,Wunderground v.1.15,2013-01-15 11:32:00,
2013-01-15 05:38:00,17.3,13.8,30.33,NE,48,1.0,4.0,86,0.00,,,0.00,Wunderground v.1.15,2013-01-15 11:38:00,
2013-01-15 05:43:00,17.2,14.0,30.32,NE,48,2.0,4.0,87,0.00,,,0.00,Wunderground v.1.15,2013-01-15 11:43:00,
2013-01-15 05:49:00,17.1,13.9,30.32,ENE,59,1.0,4.0,87,0.00,,,0.00,Wunderground v.1.15,2013-01-15 11:49:00,
2013-01-15 05:54:00,17.2,14.0,30.32,ENE,59,1.0,3.0,87,0.00,,,0.00,Wunderground v.1.15,2013-01-15 11:54:00,
2013-01-15 05:59:00,17.3,14.1,30.32,East,81,2.0,3.0,87,0.00,,,0.00,Wunderground v.1.15,2013-01-15 11:59:00,
2013-01-15 06:05:00,17.1,13.9,30.32,East,81,1.0,2.0,87,0.00,,,0.00,Wunderground v.1.15,2013-01-15 12:05:00,
2013-01-15 06:10:00,17.1,13.9,30.33,East,81,1.0,1.0,87,0.00,,,0.00,Wunderground v.1.15,2013-01-15 12:10:00,
2013-01-15 06:16:00,17.0,13.8,30.32,East,81,0.0,1.0,87,0.00,,,0.00,Wunderground v.1.15,2013-01-15 12:16:00,
2013-01-15 06:21:00,16.8,13.6,30.32,NNE,28,0.0,0.0,87,0.00,,,0.00,Wunderground v.1.15,2013-01-15 12:21:00,
2013-01-15 06:26:00,16.9,13.7,30.33,NNE,28,0.0,1.0,87,0.00,,,0.00,Wunderground v.1.15,2013-01-15 12:26:00,
2013-01-15 06:32:00,17.0,14.1,30.33,NNE,28,0.0,0.0,88,0.00,,,0.00,Wunderground v.1.15,2013-01-15 12:32:00,
2013-01-15 06:37:00,17.0,14.1,30.30,NE,51,1.0,4.0,88,0.00,,,0.00,Wunderground v.1.15,2013-01-15 12:37:00,
2013-01-15 06:43:00,17.1,14.4,30.33,ENE,57,1.0,2.0,89,0.00,,,0.00,Wunderground v.1.15,2013-01-15 12:43:00,
2013-01-15 06:48:00,17.1,14.4,30.33,ENE,71,2.0,7.0,89,0.00,,,0.00,Wunderground v.1.15,2013-01-15 12:48:00,
2013-01-15 06:53:00,17.1,14.4,30.32,ENE,73,1.0,3.0,89,0.00,,,0.00,Wunderground v.1.15,2013-01-15 12:53:00,
2013-01-15 06:59:00,17.1,14.4,30.32,ENE,62,1.0,3.0,89,0.00,,,0.00,Wunderground v.1.15,2013-01-15 12:59:00,
2013-01-15 07:05:00,17.1,14.4,30.32,East,82,1.0,2.0,89,0.00,,,0.00,Wunderground v.1.15,2013-01-15 13:05:00,
2013-01-15 07:10:00,17.1,14.4,30.33,East,82,0.0,0.0,89,0.00,,,0.00,Wunderground v.1.15,2013-01-15 13:10:00,
2013-01-15 07:15:00,17.1,14.4,30.33,East,82,0.0,0.0,89,0.00,,,0.00,Wunderground v.1.15,2013-01-15 13:15:00,
2013-01-15 07:21:00,17.2,14.8,30.33,East,82,0.0,0.0,90,0.00,,,0.00,Wunderground v.1.15,2013-01-15 13:21:00,
2013-01-15 07:26:00,17.3,14.9,30.33,East,82,0.0,0.0,90,0.00,,,0.00,Wunderground v.1.15,2013-01-15 13:26:00,
2013-01-15 07:31:00,17.3,14.9,30.32,East,82,0.0,0.0,90,0.00,,,0.00,Wunderground v.1.15,2013-01-15 13:31:00,
2013-01-15 07:37:00,17.4,15.0,30.31,East,82,0.0,0.0,90,0.00,,,0.00,Wunderground v.1.15,2013-01-15 13:37:00,
2013-01-15 07:42:00,17.5,15.1,30.32,East,82,0.0,0.0,90,0.00,,,0.00,Wunderground v.1.15,2013-01-15 13:42:00,
2013-01-15 07:48:00,17.5,15.1,30.32,East,82,0.0,3.0,90,0.00,,,0.00,Wunderground v.1.15,2013-01-15 13:48:00,
2013-01-15 07:53:00,17.6,15.2,30.31,ENE,60,2.0,5.0,90,0.00,,,0.00,Wunderground v.1.15,2013-01-15 13:53:00,
2013-01-15 07:59:00,17.6,15.2,30.31,ENE,60,2.0,5.0,90,0.00,,,0.00,Wunderground v.1.15,2013-01-15 13:59:00,
2013-01-15 08:05:00,17.7,15.3,30.30,North,11,2.0,4.0,90,0.00,,,0.00,Wunderground v.1.15,2013-01-15 14:05:00,
2013-01-15 08:10:00,17.6,15.2,30.29,ENE,68,3.0,5.0,90,0.00,,,0.00,Wunderground v.1.15,2013-01-15 14:10:00,
2013-01-15 08:16:00,17.7,15.3,30.29,NNE,29,3.0,5.0,90,0.00,,,0.00,Wunderground v.1.15,2013-01-15 14:16:00,
2013-01-15 08:21:00,17.8,15.4,30.32,NE,42,3.0,3.0,90,0.00,,,0.00,Wunderground v.1.15,2013-01-15 14:21:00,
2013-01-15 08:26:00,18.0,15.6,30.32,North,355,2.0,3.0,90,0.00,,,0.00,Wunderground v.1.15,2013-01-15 14:26:00,
2013-01-15 08:31:00,18.1,15.7,30.33,North,355,1.0,1.0,90,0.00,,,0.00,Wunderground v.1.15,2013-01-15 14:31:00,
2013-01-15 08:37:00,18.5,16.1,30.33,North,355,0.0,1.0,90,0.00,,,0.00,Wunderground v.1.15,2013-01-15 14:37:00,
2013-01-15 08:42:00,18.6,16.2,30.34,North,355,0.0,0.0,90,0.00,,,0.00,Wunderground v.1.15,2013-01-15 14:42:00,
2013-01-15 08:48:00,18.8,16.1,30.34,NNE,26,0.0,1.0,89,0.00,,,0.00,Wunderground v.1.15,2013-01-15 14:48:00,
2013-01-15 08:53:00,18.9,16.2,30.35,NNE,26,0.0,0.0,89,0.00,,,0.00,Wunderground v.1.15,2013-01-15 14:53:00,
2013-01-15 08:59:00,19.0,16.3,30.35,NNE,26,0.0,0.0,89,0.00,,,0.00,Wunderground v.1.15,2013-01-15 14:59:00,
2013-01-15 09:05:00,19.2,16.2,30.36,NNE,26,0.0,0.0,88,0.00,,,0.00,Wunderground v.1.15,2013-01-15 15:05:00,
2013-01-15 09:10:00,19.3,16.3,30.36,NNE,26,0.0,0.0,88,0.00,,,0.00,Wunderground v.1.15,2013-01-15 15:10:00,
2013-01-15 09:15:00,19.5,16.5,30.36,NNE,26,0.0,0.0,88,0.00,,,0.00,Wunderground v.1.15,2013-01-15 15:15:00,
2013-01-15 09:21:00,19.5,16.3,30.37,NNE,26,0.0,0.0,87,0.00,,,0.00,Wunderground v.1.15,2013-01-15 15:21:00,
2013-01-15 09:27:00,19.8,16.3,30.38,NNE,26,0.0,0.0,86,0.00,,,0.00,Wunderground v.1.15,2013-01-15 15:27:00,
2013-01-15 09:32:00,20.0,16.8,30.37,NNE,26,0.0,0.0,87,0.00,,,0.00,Wunderground v.1.15,2013-01-15 15:32:00,
2013-01-15 09:37:00,20.2,17.0,30.37,NNE,26,0.0,0.0,87,0.00,,,0.00,Wunderground v.1.15,2013-01-15 15:37:00,
2013-01-15 09:43:00,20.2,17.0,30.35,NE,40,0.0,1.0,87,0.00,,,0.00,Wunderground v.1.15,2013-01-15 15:43:00,
2013-01-15 09:48:00,20.3,17.0,30.34,NE,47,1.0,3.0,87,0.00,,,0.00,Wunderground v.1.15,2013-01-15 15:48:00,
2013-01-15 09:53:00,20.4,17.1,30.35,NE,46,1.0,2.0,87,0.00,,,0.00,Wunderground v.1.15,2013-01-15 15:53:00,
2013-01-15 09:59:00,20.6,17.3,30.35,NE,46,1.0,2.0,87,0.00,,,0.00,Wunderground v.1.15,2013-01-15 15:59:00,
2013-01-15 10:04:00,20.8,17.5,30.33,ENE,76,0.0,2.0,87,0.00,,,0.00,Wunderground v.1.15,2013-01-15 16:04:00,
2013-01-15 10:09:00,20.9,17.1,30.34,ENE,70,1.0,3.0,85,0.00,,,0.00,Wunderground v.1.15,2013-01-15 16:09:00,
2013-01-15 10:15:00,21.4,17.6,30.34,ENE,63,1.0,4.0,85,0.00,,,0.00,Wunderground v.1.15,2013-01-15 16:15:00,
2013-01-15 10:20:00,21.6,17.8,30.33,NE,56,1.0,1.0,85,0.00,,,0.00,Wunderground v.1.15,2013-01-15 16:20:00,
2013-01-15 10:25:00,21.6,17.5,30.33,East,101,1.0,3.0,84,0.00,,,0.00,Wunderground v.1.15,2013-01-15 16:25:00,
2013-01-15 10:30:00,21.5,16.9,30.33,ENE,68,2.0,2.0,82,0.00,,,0.00,Wunderground v.1.15,2013-01-15 16:30:00,
2013-01-15 10:36:00,21.9,17.2,30.33,ENE,74,1.0,3.0,82,0.00,,,0.00,Wunderground v.1.15,2013-01-15 16:36:00,
2013-01-15 10:41:00,22.2,17.5,30.33,ENE,74,0.0,0.0,82,0.00,,,0.00,Wunderground v.1.15,2013-01-15 16:41:00,
2013-01-15 10:46:00,22.4,17.5,30.33,ENE,73,0.0,2.0,81,0.00,,,0.00,Wunderground v.1.15,2013-01-15 16:46:00,
2013-01-15 10:52:00,22.2,17.0,30.33,East,86,1.0,3.0,80,0.00,,,0.00,Wunderground v.1.15,2013-01-15 16:52:00,
2013-01-15 10:57:00,22.7,17.7,30.32,East,86,1.0,3.0,81,0.00,,,0.00,Wunderground v.1.15,2013-01-15 16:57:00,
2013-01-15 11:02:00,22.8,17.6,30.32,East,86,0.0,6.0,80,0.00,,,0.00,Wunderground v.1.15,2013-01-15 17:02:00,
2013-01-15 11:08:00,22.6,17.1,30.32,East,88,1.0,6.0,79,0.00,,,0.00,Wunderground v.1.15,2013-01-15 17:08:00,
2013-01-15 11:13:00,22.7,16.9,30.32,East,88,1.0,2.0,78,0.00,,,0.00,Wunderground v.1.15,2013-01-15 17:13:00,
2013-01-15 11:18:00,22.9,17.1,30.31,East,87,1.0,2.0,78,0.00,,,0.00,Wunderground v.1.15,2013-01-15 17:18:00,
2013-01-15 11:23:00,23.0,16.9,30.31,North,9,1.0,3.0,77,0.00,,,0.00,Wunderground v.1.15,2013-01-15 17:23:00,
2013-01-15 11:29:00,23.2,16.8,30.31,North,11,1.0,3.0,76,0.00,,,0.00,Wunderground v.1.15,2013-01-15 17:29:00,
2013-01-15 11:34:00,23.4,16.6,30.31,ENE,78,1.0,1.0,75,0.00,,,0.00,Wunderground v.1.15,2013-01-15 17:34:00,
2013-01-15 11:40:00,23.2,16.4,30.30,East,92,1.0,1.0,75,0.00,,,0.00,Wunderground v.1.15,2013-01-15 17:40:00,
2013-01-15 11:45:00,23.1,16.0,30.29,NE,50,2.0,5.0,74,0.00,,,0.00,Wunderground v.1.15,2013-01-15 17:45:00,
2013-01-15 11:51:00,23.2,15.8,30.29,ENE,71,3.0,5.0,73,0.00,,,0.00,Wunderground v.1.15,2013-01-15 17:51:00,
2013-01-15 11:56:00,23.4,16.0,30.27,ENE,60,2.0,5.0,73,0.00,,,0.00,Wunderground v.1.15,2013-01-15 17:56:00,
2013-01-15 12:01:00,24.1,16.4,30.27,NE,37,2.0,4.0,72,0.00,,,0.00,Wunderground v.1.15,2013-01-15 18:01:00,
2013-01-15 12:06:00,24.2,16.5,30.27,ENE,61,2.0,4.0,72,0.00,,,0.00,Wunderground v.1.15,2013-01-15 18:06:00,
2013-01-15 12:12:00,24.7,16.6,30.26,NE,47,1.0,4.0,71,0.00,,,0.00,Wunderground v.1.15,2013-01-15 18:12:00,
2013-01-15 12:17:00,25.8,17.4,30.26,NE,44,1.0,4.0,70,0.00,,,0.00,Wunderground v.1.15,2013-01-15 18:17:00,
2013-01-15 12:23:00,27.0,18.5,30.25,East,82,1.0,2.0,70,0.00,,,0.00,Wunderground v.1.15,2013-01-15 18:23:00,
2013-01-15 12:28:00,27.5,18.0,30.25,NNE,27,1.0,2.0,67,0.00,,,0.00,Wunderground v.1.15,2013-01-15 18:28:00,
2013-01-15 12:33:00,27.7,18.2,30.25,East,86,0.0,1.0,67,0.00,,,0.00,Wunderground v.1.15,2013-01-15 18:33:00,
2013-01-15 12:39:00,28.0,18.5,30.25,NNE,15,1.0,2.0,67,0.00,,,0.00,Wunderground v.1.15,2013-01-15 18:39:00,
2013-01-15 12:44:00,27.6,18.1,30.24,East,82,2.0,3.0,67,0.00,,,0.00,Wunderground v.1.15,2013-01-15 18:44:00,
2013-01-15 12:50:00,28.4,18.5,30.24,East,86,2.0,2.0,66,0.00,,,0.00,Wunderground v.1.15,2013-01-15 18:50:00,
2013-01-15 12:55:00,29.5,18.4,30.24,South,173,1.0,5.0,63,0.00,,,0.00,Wunderground v.1.15,2013-01-15 18:55:00,
2013-01-15 13:01:00,28.9,17.1,30.24,East,88,1.0,1.0,61,0.00,,,0.00,Wunderground v.1.15,2013-01-15 19:01:00,
2013-01-15 13:06:00,32.0,18.5,30.23,NE,38,2.0,3.0,57,0.00,,,0.00,Wunderground v.1.15,2013-01-15 19:06:00,
2013-01-15 13:11:00,29.5,14.9,30.23,ENE,57,3.0,7.0,54,0.00,,,0.00,Wunderground v.1.15,2013-01-15 19:11:00,
2013-01-15 13:17:00,29.4,15.2,30.23,East,84,4.0,7.0,55,0.00,,,0.00,Wunderground v.1.15,2013-01-15 19:17:00,
2013-01-15 13:22:00,30.2,15.5,30.23,East,92,3.0,7.0,54,0.00,,,0.00,Wunderground v.1.15,2013-01-15 19:22:00,
2013-01-15 13:27:00,30.3,16.5,30.23,ENE,76,2.0,7.0,56,0.00,,,0.00,Wunderground v.1.15,2013-01-15 19:27:00,
2013-01-15 13:33:00,31.9,17.1,30.23,NNE,27,2.0,5.0,54,0.00,,,0.00,Wunderground v.1.15,2013-01-15 19:33:00,
2013-01-15 13:38:00,30.9,14.4,30.22,ESE,123,2.0,7.0,50,0.00,,,0.00,Wunderground v.1.15,2013-01-15 19:38:00,
2013-01-15 13:44:00,30.2,14.7,30.22,ENE,72,2.0,3.0,52,0.00,,,0.00,Wunderground v.1.15,2013-01-15 19:44:00,
2013-01-15 13:50:00,30.9,14.9,30.21,NE,37,2.0,5.0,51,0.00,,,0.00,Wunderground v.1.15,2013-01-15 19:50:00,
2013-01-15 13:56:00,30.6,14.6,30.22,East,82,4.0,6.0,51,0.00,,,0.00,Wunderground v.1.15,2013-01-15 19:56:00,
2013-01-15 14:01:00,31.0,15.8,30.22,ENE,74,4.0,4.0,53,0.00,,,0.00,Wunderground v.1.15,2013-01-15 20:01:00,
2013-01-15 14:07:00,33.0,16.8,30.22,East,88,3.0,7.0,51,0.00,,,0.00,Wunderground v.1.15,2013-01-15 20:07:00,
2013-01-15 14:12:00,31.6,16.4,30.22,SE,134,2.0,5.0,53,0.00,,,0.00,Wunderground v.1.15,2013-01-15 20:12:00,
2013-01-15 14:17:00,31.4,17.1,30.21,East,86,2.0,5.0,55,0.00,,,0.00,Wunderground v.1.15,2013-01-15 20:17:00,
2013-01-15 14:23:00,31.7,17.8,30.20,ENE,74,1.0,3.0,56,0.00,,,0.00,Wunderground v.1.15,2013-01-15 20:23:00,
2013-01-15 14:28:00,30.9,17.0,30.21,North,360,1.0,3.0,56,0.00,,,0.00,Wunderground v.1.15,2013-01-15 20:28:00,
2013-01-15 14:34:00,30.5,17.1,30.20,NE,55,1.0,4.0,57,0.00,,,0.00,Wunderground v.1.15,2013-01-15 20:34:00,
2013-01-15 14:40:00,29.7,16.7,30.20,ENE,58,2.0,2.0,58,0.00,,,0.00,Wunderground v.1.15,2013-01-15 20:40:00,
2013-01-15 14:46:00,30.6,17.2,30.20,NNE,29,2.0,3.0,57,0.00,,,0.00,Wunderground v.1.15,2013-01-15 20:46:00,
2013-01-15 14:52:00,30.2,17.2,30.20,East,89,2.0,2.0,58,0.00,,,0.00,Wunderground v.1.15,2013-01-15 20:52:00,
2013-01-15 14:58:00,30.6,18.0,30.20,ENE,77,1.0,3.0,59,0.00,,,0.00,Wunderground v.1.15,2013-01-15 20:58:00,
2013-01-15 15:03:00,30.7,17.7,30.21,ENE,67,1.0,1.0,58,0.00,,,0.00,Wunderground v.1.15,2013-01-15 21:03:00,
2013-01-15 15:09:00,30.2,17.6,30.22,NE,46,1.0,4.0,59,0.00,,,0.00,Wunderground v.1.15,2013-01-15 21:09:00,
2013-01-15 15:15:00,31.4,18.7,30.22,NE,52,1.0,3.0,59,0.00,,,0.00,Wunderground v.1.15,2013-01-15 21:15:00,
2013-01-15 15:21:00,31.7,17.4,30.22,NE,53,0.0,0.0,55,0.00,,,0.00,Wunderground v.1.15,2013-01-15 21:21:00,
2013-01-15 15:26:00,31.5,18.0,30.22,NE,40,1.0,2.0,57,0.00,,,0.00,Wunderground v.1.15,2013-01-15 21:26:00,
2013-01-15 15:32:00,31.0,17.5,30.22,NE,44,1.0,1.0,57,0.00,,,0.00,Wunderground v.1.15,2013-01-15 21:32:00,
2013-01-15 15:37:00,31.5,18.0,30.22,NE,42,0.0,1.0,57,0.00,,,0.00,Wunderground v.1.15,2013-01-15 21:37:00,
2013-01-15 15:43:00,31.5,18.0,30.23,NE,42,0.0,2.0,57,0.00,,,0.00,Wunderground v.1.15,2013-01-15 21:43:00,
2013-01-15 15:48:00,31.9,18.4,30.23,NE,38,0.0,2.0,57,0.00,,,0.00,Wunderground v.1.15,2013-01-15 21:48:00,
2013-01-15 15:54:00,31.4,17.9,30.23,NNW,348,1.0,3.0,57,0.00,,,0.00,Wunderground v.1.15,2013-01-15 21:54:00,
2013-01-15 15:59:00,31.6,18.5,30.23,North,349,1.0,1.0,58,0.00,,,0.00,Wunderground v.1.15,2013-01-15 21:59:00,
2013-01-15 16:05:00,31.0,17.5,30.23,NE,38,0.0,1.0,57,0.00,,,0.00,Wunderground v.1.15,2013-01-15 22:05:00,
2013-01-15 16:10:00,31.3,17.8,30.24,North,349,0.0,0.0,57,0.00,,,0.00,Wunderground v.1.15,2013-01-15 22:10:00,
2013-01-15 16:16:00,30.8,17.7,30.24,North,355,0.0,0.0,58,0.00,,,0.00,Wunderground v.1.15,2013-01-15 22:16:00,
2013-01-15 16:22:00,30.6,17.6,30.24,NE,46,0.0,5.0,58,0.00,,,0.00,Wunderground v.1.15,2013-01-15 22:22:00,
2013-01-15 16:27:00,30.3,17.7,30.24,NNW,346,1.0,5.0,59,0.00,,,0.00,Wunderground v.1.15,2013-01-15 22:27:00,
2013-01-15 16:33:00,29.9,16.9,30.24,NNE,30,1.0,2.0,58,0.00,,,0.00,Wunderground v.1.15,2013-01-15 22:33:00,
2013-01-15 16:38:00,29.9,17.3,30.24,NE,49,1.0,2.0,59,0.00,,,0.00,Wunderground v.1.15,2013-01-15 22:38:00,
2013-01-15 16:43:00,30.0,17.4,30.24,NE,51,0.0,1.0,59,0.00,,,0.00,Wunderground v.1.15,2013-01-15 22:43:00,
2013-01-15 16:48:00,29.7,17.1,30.24,ENE,63,1.0,3.0,59,0.00,,,0.00,Wunderground v.1.15,2013-01-15 22:48:00,
2013-01-15 16:54:00,29.4,16.8,30.24,ENE,63,1.0,1.0,59,0.00,,,0.00,Wunderground v.1.15,2013-01-15 22:54:00,
2013-01-15 16:59:00,29.2,16.6,30.24,ENE,63,0.0,1.0,59,0.00,,,0.00,Wunderground v.1.15,2013-01-15 22:59:00,
2013-01-15 17:05:00,29.2,17.0,30.24,ENE,63,0.0,1.0,60,0.00,,,0.00,Wunderground v.1.15,2013-01-15 23:05:00,
2013-01-15 17:10:00,29.2,17.4,30.23,ENE,63,0.0,0.0,61,0.00,,,0.00,Wunderground v.1.15,2013-01-15 23:10:00,
2013-01-15 17:15:00,29.2,17.0,30.23,ENE,63,0.0,0.0,60,0.00,,,0.00,Wunderground v.1.15,2013-01-15 23:15:00,
2013-01-15 17:21:00,28.9,17.1,30.23,ENE,63,0.0,0.0,61,0.00,,,0.00,Wunderground v.1.15,2013-01-15 23:21:00,
2013-01-15 17:27:00,28.8,17.0,30.24,ENE,63,0.0,0.0,61,0.00,,,0.00,Wunderground v.1.15,2013-01-15 23:27:00,
2013-01-15 17:32:00,28.6,16.8,30.24,ENE,63,0.0,0.0,61,0.00,,,0.00,Wunderground v.1.15,2013-01-15 23:32:00,
2013-01-15 17:38:00,28.6,17.2,30.24,ENE,63,0.0,0.0,62,0.00,,,0.00,Wunderground v.1.15,2013-01-15 23:38:00,
2013-01-15 17:43:00,28.6,16.8,30.24,ENE,63,0.0,0.0,61,0.00,,,0.00,Wunderground v.1.15,2013-01-15 23:43:00,
2013-01-15 17:48:00,28.7,17.3,30.24,ENE,63,0.0,0.0,62,0.00,,,0.00,Wunderground v.1.15,2013-01-15 23:48:00,
2013-01-15 17:54:00,28.6,17.6,30.24,ENE,63,0.0,0.0,63,0.00,,,0.00,Wunderground v.1.15,2013-01-15 23:54:00,
2013-01-15 17:59:00,28.6,17.2,30.24,ENE,63,0.0,0.0,62,0.00,,,0.00,Wunderground v.1.15,2013-01-15 23:59:00,
2013-01-15 18:04:00,28.5,17.1,30.24,ENE,63,0.0,0.0,62,0.00,,,0.00,Wunderground v.1.15,2013-01-16 00:04:00,
2013-01-15 18:10:00,28.5,17.1,30.24,ENE,63,0.0,0.0,62,0.00,,,0.00,Wunderground v.1.15,2013-01-16 00:10:00,
2013-01-15 18:15:00,28.3,16.9,30.23,ENE,63,0.0,0.0,62,0.00,,,0.00,Wunderground v.1.15,2013-01-16 00:15:00,
2013-01-15 18:21:00,28.1,17.1,30.24,ENE,63,0.0,0.0,63,0.00,,,0.00,Wunderground v.1.15,2013-01-16 00:21:00,
2013-01-15 18:26:00,28.1,17.1,30.24,ENE,63,0.0,0.0,63,0.00,,,0.00,Wunderground v.1.15,2013-01-16 00:26:00,
2013-01-15 18:31:00,28.1,17.1,30.24,ENE,63,0.0,0.0,63,0.00,,,0.00,Wunderground v.1.15,2013-01-16 00:31:00,
2013-01-15 18:37:00,27.9,16.9,30.24,ENE,63,0.0,0.0,63,0.00,,,0.00,Wunderground v.1.15,2013-01-16 00:37:00,
2013-01-15 18:42:00,27.9,16.9,30.24,ENE,63,0.0,0.0,63,0.00,,,0.00,Wunderground v.1.15,2013-01-16 00:42:00,
2013-01-15 18:48:00,28.0,17.0,30.24,ENE,63,0.0,0.0,63,0.00,,,0.00,Wunderground v.1.15,2013-01-16 00:48:00,
2013-01-15 18:53:00,28.1,17.1,30.24,ENE,63,0.0,0.0,63,0.00,,,0.00,Wunderground v.1.15,2013-01-16 00:53:00,
2013-01-15 18:59:00,28.1,16.7,30.24,ENE,63,0.0,0.0,62,0.00,,,0.00,Wunderground v.1.15,2013-01-16 00:59:00,
2013-01-15 19:04:00,28.2,16.8,30.24,ENE,63,0.0,0.0,62,0.00,,,0.00,Wunderground v.1.15,2013-01-16 01:04:00,
2013-01-15 19:10:00,28.0,17.4,30.24,ENE,63,0.0,0.0,64,0.00,,,0.00,Wunderground v.1.15,2013-01-16 01:10:00,
2013-01-15 19:15:00,28.0,17.7,30.24,ENE,63,0.0,0.0,65,0.00,,,0.00,Wunderground v.1.15,2013-01-16 01:15:00,
2013-01-15 19:21:00,27.8,17.2,30.24,ENE,63,0.0,0.0,64,0.00,,,0.00,Wunderground v.1.15,2013-01-16 01:21:00,
2013-01-15 19:26:00,27.8,17.2,30.24,ENE,63,0.0,0.0,64,0.00,,,0.00,Wunderground v.1.15,2013-01-16 01:26:00,
2013-01-15 19:32:00,27.8,17.2,30.24,ENE,63,0.0,0.0,64,0.00,,,0.00,Wunderground v.1.15,2013-01-16 01:32:00,
2013-01-15 19:37:00,27.7,16.7,30.24,ENE,63,0.0,0.0,63,0.00,,,0.00,Wunderground v.1.15,2013-01-16 01:37:00,
2013-01-15 19:42:00,27.6,16.6,30.23,ENE,63,0.0,0.0,63,0.00,,,0.00,Wunderground v.1.15,2013-01-16 01:42:00,
2013-01-15 19:48:00,27.7,16.7,30.23,ENE,63,0.0,0.0,63,0.00,,,0.00,Wunderground v.1.15,2013-01-16 01:48:00,
2013-01-15 19:53:00,27.8,17.2,30.23,ENE,63,0.0,0.0,64,0.00,,,0.00,Wunderground v.1.15,2013-01-16 01:53:00,
2013-01-15 19:58:00,27.8,17.2,30.23,ENE,63,0.0,0.0,64,0.00,,,0.00,Wunderground v.1.15,2013-01-16 01:58:00,
2013-01-15 20:04:00,27.8,17.9,30.23,ENE,57,0.0,0.0,66,0.00,,,0.00,Wunderground v.1.15,2013-01-16 02:04:00,
2013-01-15 20:10:00,27.7,17.8,30.23,ENE,57,0.0,0.0,66,0.00,,,0.00,Wunderground v.1.15,2013-01-16 02:10:00,
2013-01-15 20:15:00,27.6,17.4,30.23,ENE,57,0.0,0.0,65,0.00,,,0.00,Wunderground v.1.15,2013-01-16 02:15:00,
2013-01-15 20:20:00,27.6,17.4,30.23,ENE,57,0.0,0.0,65,0.00,,,0.00,Wunderground v.1.15,2013-01-16 02:20:00,
2013-01-15 20:26:00,27.6,17.7,30.23,ENE,57,0.0,0.0,66,0.00,,,0.00,Wunderground v.1.15,2013-01-16 02:26:00,
2013-01-15 20:31:00,27.4,17.5,30.22,ENE,57,0.0,0.0,66,0.00,,,0.00,Wunderground v.1.15,2013-01-16 02:31:00,
2013-01-15 20:36:00,27.2,17.7,30.22,ENE,57,0.0,2.0,67,0.00,,,0.00,Wunderground v.1.15,2013-01-16 02:36:00,
2013-01-15 20:41:00,26.9,17.4,30.21,ENE,57,0.0,0.0,67,0.00,,,0.00,Wunderground v.1.15,2013-01-16 02:41:00,
2013-01-15 20:47:00,26.7,17.2,30.21,NNE,12,0.0,1.0,67,0.00,,,0.00,Wunderground v.1.15,2013-01-16 02:47:00,
2013-01-15 20:52:00,26.4,17.3,30.21,NNE,14,0.0,3.0,68,0.00,,,0.00,Wunderground v.1.15,2013-01-16 02:52:00,
2013-01-15 20:58:00,26.2,17.7,30.20,North,5,0.0,3.0,70,0.00,,,0.00,Wunderground v.1.15,2013-01-16 02:58:00,
2013-01-15 21:03:00,26.1,18.0,30.21,North,5,0.0,0.0,71,0.00,,,0.00,Wunderground v.1.15,2013-01-16 03:03:00,
2013-01-15 21:08:00,25.9,18.4,30.21,North,5,0.0,2.0,73,0.00,,,0.00,Wunderground v.1.15,2013-01-16 03:08:00,
2013-01-15 21:14:00,25.7,18.6,30.22,NNW,334,0.0,0.0,74,0.00,,,0.00,Wunderground v.1.15,2013-01-16 03:14:00,
2013-01-15 21:19:00,25.4,18.9,30.21,North,360,0.0,0.0,76,0.00,,,0.00,Wunderground v.1.15,2013-01-16 03:19:00,
2013-01-15 21:24:00,25.4,19.5,30.22,North,360,0.0,1.0,78,0.00,,,0.00,Wunderground v.1.15,2013-01-16 03:24:00,
2013-01-15 21:29:00,25.4,19.8,30.22,North,355,0.0,2.0,79,0.00,,,0.00,Wunderground v.1.15,2013-01-16 03:29:00,
2013-01-15 21:35:00,25.1,19.8,30.22,North,5,0.0,1.0,80,0.00,,,0.00,Wunderground v.1.15,2013-01-16 03:35:00,
2013-01-15 21:40:00,24.9,19.9,30.22,North,5,0.0,0.0,81,0.00,,,0.00,Wunderground v.1.15,2013-01-16 03:40:00,
2013-01-15 21:46:00,24.8,20.1,30.23,North,5,0.0,0.0,82,0.00,,,0.00,Wunderground v.1.15,2013-01-16 03:46:00,
2013-01-15 21:51:00,24.7,20.3,30.23,North,5,0.0,0.0,83,0.00,,,0.00,Wunderground v.1.15,2013-01-16 03:51:00,
2013-01-15 21:56:00,24.6,20.2,30.23,North,5,0.0,1.0,83,0.00,,,0.00,Wunderground v.1.15,2013-01-16 03:56:00,
2013-01-15 22:02:00,24.6,20.5,30.23,North,5,0.0,1.0,84,0.00,,,0.00,Wunderground v.1.15,2013-01-16 04:02:00,
2013-01-15 22:07:00,24.6,20.5,30.23,North,360,0.0,3.0,84,0.00,,,0.00,Wunderground v.1.15,2013-01-16 04:07:00,
2013-01-15 22:12:00,24.5,20.6,30.23,North,351,0.0,1.0,85,0.00,,,0.00,Wunderground v.1.15,2013-01-16 04:12:00,
2013-01-15 22:18:00,24.4,22.4,30.23,North,355,0.0,1.0,92,0.00,,,0.00,Wunderground v.1.15,2013-01-16 04:18:00,
2013-01-15 22:23:00,24.2,20.3,30.24,WNW,297,0.0,2.0,85,0.00,,,0.00,Wunderground v.1.15,2013-01-16 04:23:00,
2013-01-15 22:29:00,24.0,20.4,30.23,WNW,297,0.0,2.0,86,0.00,,,0.00,Wunderground v.1.15,2013-01-16 04:29:00,
2013-01-15 22:35:00,23.7,20.1,30.23,WNW,297,0.0,0.0,86,0.00,,,0.00,Wunderground v.1.15,2013-01-16 04:35:00,
2013-01-15 22:40:00,23.5,19.9,30.23,WNW,300,0.0,0.0,86,0.00,,,0.00,Wunderground v.1.15,2013-01-16 04:40:00,
2013-01-15 22:45:00,23.4,19.8,30.23,NW,309,0.0,0.0,86,0.00,,,0.00,Wunderground v.1.15,2013-01-16 04:45:00,
2013-01-15 22:51:00,23.1,19.8,30.22,NW,309,0.0,0.0,87,0.00,,,0.00,Wunderground v.1.15,2013-01-16 04:51:00,
2013-01-15 22:56:00,23.1,19.8,30.22,NW,309,0.0,0.0,87,0.00,,,0.00,Wunderground v.1.15,2013-01-16 04:56:00,
2013-01-15 23:00:00,23.1,19.8,30.22,NW,309,0.0,0.0,87,0.00,,,0.00,Wunderground v.1.15,2013-01-16 05:00:00,
2013-01-15 23:01:00,23.1,20.1,30.22,NW,309,0.0,0.0,88,0.00,,,0.00,Wunderground v.1.15,2013-01-16 05:01:00,
2013-01-15 23:03:00,23.2,20.2,30.22,NW,309,0.0,0.0,88,0.00,,,0.00,Wunderground v.1.15,2013-01-16 05:03:00,
2013-01-15 23:08:00,23.1,20.1,30.22,NW,310,0.0,0.0,88,0.00,,,0.00,Wunderground v.1.15,2013-01-16 05:08:00,
2013-01-15 23:14:00,23.0,20.0,30.21,NW,310,0.0,0.0,88,0.00,,,0.00,Wunderground v.1.15,2013-01-16 05:14:00,
2013-01-15 23:20:00,22.7,19.7,30.21,NW,310,0.0,0.0,88,0.00,,,0.00,Wunderground v.1.15,2013-01-16 05:20:00,
2013-01-15 23:25:00,22.7,19.7,30.22,NW,310,0.0,0.0,88,0.00,,,0.00,Wunderground v.1.15,2013-01-16 05:25:00,
2013-01-15 23:31:00,22.5,19.5,30.22,NW,310,0.0,0.0,88,0.00,,,0.00,Wunderground v.1.15,2013-01-16 05:31:00,
2013-01-15 23:36:00,22.4,19.4,30.22,NW,310,0.0,0.0,88,0.00,,,0.00,Wunderground v.1.15,2013-01-16 05:36:00,
2013-01-15 23:41:00,22.3,19.3,30.22,NW,310,0.0,0.0,88,0.00,,,0.00,Wunderground v.1.15,2013-01-16 05:41:00,
2013-01-15 23:47:00,22.2,19.2,30.23,NW,310,0.0,0.0,88,0.00,,,0.00,Wunderground v.1.15,2013-01-16 05:47:00,
2013-01-15 23:53:00,22.1,19.1,30.22,NW,310,0.0,0.0,88,0.00,,,0.00,Wunderground v.1.15,2013-01-16 05:53:00,
2013-01-15 23:58:00,22.0,19.3,30.22,NW,310,0.0,0.0,89,0.00,,,0.00,Wunderground v.1.15,2013-01-16 05:58:00,